User: anonymous   Login
Location: Unspecified
(0.0000°N, 0.0000°E)
Time: 01:59:37
(UTC+00:00)
Language:

STARLINK-34240 - Orbit

View from above orbital plane
View from above orbital plane
View from above satellite
View from above satellite

Ground track
Ground track

The orbit is defined by the following mean orbital elements,

1 64265U          26145.32097691 +.00000000 +00000-0 +37609-3 0 00009
2 64265  53.1614 121.1065 0001141  88.2917 271.8214 15.30204987    07
Epoch (UTC): 25 May 2026 07:42:12
Eccentricity: 0.0001141
inclination: 53.1614°
perigee height: 474 km
apogee height: 476 km
right ascension of ascending node: 121.1065°
argument of perigee: 88.2917°
revolutions per day: 15.30204987
mean anomaly at epoch: 271.8214°

The dashed part of the orbit path shows where the satellite is in the earth's shadow,  

DLR